H1 CPF 2 NER 2024 2 21 9 052 01 glonass138 H2 1805301 9138 43508 2024 2 21 0 0 0 2024 2 24 23 45 0 900 1 1 0 0 0 1 H9 10 0 60361 0.00000 0 3783417.512 -17093030.143 -18546747.124 10 0 60361 900.00000 0 5083439.611 -18825241.744 -16443202.387 10 0 60361 1800.00000 0 6087553.309 -20423709.020 -14020232.120 10 0 60361 2700.00000 0 6802273.031 -21825857.062 -11324977.909 10 0 60361 3600.00000 0 7246423.959 -22973764.945 -8409842.166 10 0 60361 4500.00000 0 7450081.312 -23816586.379 -5331466.400 10 0 60361 5400.00000 0 7453039.910 -24312691.544 -2149628.953 10 0 60361 6300.00000 0 7302880.089 -24431440.599 1073916.196 10 0 60361 7200.00000 0 7052712.771 -24154514.895 4276636.806 10 0 60361 8100.00000 0 6758699.776 -23476750.497 7396432.633 10 0 60361 9000.00000 0 6477454.623 -22406439.456 10372835.150 10 0 60361 9900.00000 0 6263433.757 -20965086.538 13148173.630 10 0 60361 10800.00000 0 6166428.336 -19186631.754 15668685.416 10 0 60361 11700.00000 0 6229262.124 -17116171.140 17885549.471 10 0 60361 12600.00000 0 6485792.311 -14808228.913 19755823.889 10 0 60361 13500.00000 0 6959297.200 -12324652.482 21243270.130 10 0 60361 14400.00000 0 7661318.577 -9732217.094 22319048.876 10 0 60361 15300.00000 0 8591007.651 -7100038.712 22962274.852 10 0 60361 16200.00000 0 9735002.628 -4496901.323 23160420.505 10 0 60361 17100.00000 0 11067844.052 -1988608.324 22909561.077 10 0 60361 18000.00000 0 12552911.810 364533.397 22214456.331 10 0 60361 18900.00000 0 14143846.194 2509993.486 21088467.004 10 0 60361 19800.00000 0 15786395.230 4404968.601 19553306.882 10 0 60361 20700.00000 0 17420612.641 6017923.068 17638634.274 10 0 60361 21600.00000 0 18983315.916 7329656.098 15381489.608 10 0 60361 22500.00000 0 20410702.647 8333851.463 12825588.747 10 0 60361 23400.00000 0 21641016.149 9037086.738 10020484.529 10 0 60361 24300.00000 0 22617148.630 9458301.852 7020611.792 10 0 60361 25200.00000 0 23289072.241 9627749.309 3884233.713 10 0 60361 26100.00000 0 23615994.931 9585470.425 672309.653 10 0 60361 27000.00000 0 23568149.177 9379362.154 -2552693.366 10 0 60361 27900.00000 0 23128136.871 9062916.726 -5728021.978 10 0 60361 28800.00000 0 22291772.189 8692730.472 -8791865.934 10 0 60361 29700.00000 0 21068385.536 8325888.328 -11684570.777 10 0 60361 30600.00000 0 19480574.546 8017335.955 -14349808.994 10 0 60361 31500.00000 0 17563411.669 7817352.069 -16735685.744 10 0 60361 32400.00000 0 15363141.082 7769229.252 -18795756.702 10 0 60361 33300.00000 0 12935419.283 7907262.592 -20489937.545 10 0 60361 34200.00000 0 10343173.141 8255132.166 -21785286.946 10 0 60361 35100.00000 0 7654165.164 8824748.498 -22656647.760 10 0 60361 36000.00000 0 4938367.922 9615610.249 -23087134.102 10 0 60361 36900.00000 0 2265257.367 10614701.521 -23068455.217 10 0 60361 37800.00000 0 -298862.132 11796933.226 -22601070.387 10 0 60361 38700.00000 0 -2693389.948 13126109.915 -21694172.454 10 0 60361 39600.00000 0 -4865713.645 14556381.286 -20365500.886 10 0 60361 40500.00000 0 -6773151.595 16034117.171 -18640988.571 10 0 60361 41400.00000 0 -8384474.143 17500127.081 -16554249.670 10 0 60361 42300.00000 0 -9680941.479 18892130.883 -14145918.917 10 0 60361 43200.00000 0 -10656816.787 20147376.730 -11462855.521 10 0 60361 44100.00000 0 -11319335.224 21205296.230 -8557227.422 10 0 60361 45000.00000 0 -11688132.102 22010085.319 -5485493.986 10 0 60361 45900.00000 0 -11794156.248 22513102.492 -2307307.125 10 0 60361 46800.00000 0 -11678116.057 22674983.826 915647.592 10 0 60361 47700.00000 0 -11388525.139 22467386.117 4120847.169 10 0 60361 48600.00000 0 -10979431.117 21874285.195 7246141.414 10 0 60361 49500.00000 0 -10507924.143 20892775.144 10230953.771 10 0 60361 50400.00000 0 -10031530.651 19533335.054 13017449.621 10 0 60361 51300.00000 0 -9605602.351 17819552.144 15551649.794 10 0 60361 52200.00000 0 -9280810.368 15787312.682 17784468.344 10 0 60361 53100.00000 0 -9100849.755 13483494.084 19672655.169 10 0 60361 54000.00000 0 -9100450.591 10964212.071 21179626.121 10 0 60361 54900.00000 0 -9303778.986 8292694.946 22276165.428 10 0 60361 55800.00000 0 -9723295.029 5536872.240 22940987.615 10 0 60361 56700.00000 0 -10359115.762 2766776.521 23161148.719 10 0 60361 57600.00000 0 -11198910.397 51864.744 22932299.193 10 0 60361 58500.00000 0 -12218333.003 -2541631.183 22258773.642 10 0 60361 59400.00000 0 -13381975.712 -4953216.083 21153515.321 10 0 60361 60300.00000 0 -14644803.880 -7130402.425 19637836.153 10 0 60361 61200.00000 0 -15954014.566 -9030647.061 17741015.927 10 0 60361 62100.00000 0 -17251241.770 -10622873.925 15499747.247 10 0 60361 63000.00000 0 -18475017.170 -11888519.686 12957435.690 10 0 60361 63900.00000 0 -19563383.788 -12822058.873 10163367.542 10 0 60361 64800.00000 0 -20456553.133 -13430986.554 7171760.230 10 0 60361 65700.00000 0 -21099493.867 -13735259.313 4040713.152 10 0 60361 66600.00000 0 -21444342.308 -13766218.046 831078.988 10 0 60361 67500.00000 0 -21452532.116 -13565038.122 -2394722.502 10 0 60361 68400.00000 0 -21096551.939 -13180772.673 -5573924.649 10 0 60361 69300.00000 0 -20361255.296 -12668072.297 -8644643.452 10 0 60361 70200.00000 0 -19244665.844 -12084678.463 -11547091.586 10 0 60361 71100.00000 0 -17758242.559 -11488797.687 -14224752.135 10 0 60361 72000.00000 0 -15926592.398 -10936468.797 -16625488.043 10 0 60361 72900.00000 0 -13786641.504 -10479035.823 -18702564.774 10 0 60361 73800.00000 0 -11386299.098 -10160834.491 -20415565.584 10 0 60361 74700.00000 0 -8782669.711 -10017191.028 -21731181.151 10 0 60361 75600.00000 0 -6039888.430 -10072818.454 -22623858.102 10 0 60361 76500.00000 0 -3226669.646 -10340678.460 -23076293.993 10 0 60361 77400.00000 0 -413671.628 -10821356.995 -23079769.450 10 0 60361 78300.00000 0 2329213.239 -11502979.759 -22634311.582 10 0 60361 79200.00000 0 4935529.936 -12361670.926 -21748686.020 10 0 60361 80100.00000 0 7344783.214 -13362535.334 -20440218.374 10 0 60361 81000.00000 0 9504706.685 -14461122.398 -18734449.095 10 0 60361 81900.00000 0 11373185.182 -15605309.682 -16664628.935 10 0 60361 82800.00000 0 12919751.623 -16737526.445 -14271065.245 10 0 60361 83700.00000 0 14126597.599 -17797223.283 -11600332.126 10 0 60361 84600.00000 0 14989057.293 -18723483.651 -8704360.101 10 0 60361 85500.00000 0 15515546.440 -19457667.202 -5639423.278 10 0 60362 0.00000 0 15726960.858 -19945973.557 -2465044.204 10 0 60362 900.00000 0 15655561.699 -20141818.843 757163.815 10 0 60362 1800.00000 0 15343395.752 -20007924.459 3964689.968 10 0 60362 2700.00000 0 14840318.976 -19518031.189 7095337.210 10 0 60362 3600.00000 0 14201707.172 -18658165.999 10088423.842 10 0 60362 4500.00000 0 13485951.027 -17427408.648 12885953.945 10 0 60362 5400.00000 0 12751841.262 -15838125.835 15433734.102 10 0 60362 6300.00000 0 12055953.931 -13915662.775 17682415.348 10 0 60362 7200.00000 0 11450145.568 -11697504.618 19588440.878 10 0 60362 8100.00000 0 10979263.014 -9231941.967 21114882.033 10 0 60362 9000.00000 0 10679163.622 -6576295.058 22232147.280 10 0 60362 9900.00000 0 10575128.477 -3794769.240 22918551.256 10 0 60362 10800.00000 0 10680734.951 -956029.418 23160733.537 10 0 60362 11700.00000 0 10997235.839 1869407.486 22953919.406 10 0 60362 12600.00000 0 11513471.457 4611855.415 22302017.632 10 0 60362 13500.00000 0 12206319.048 7205107.686 21217553.046 10 0 60362 14400.00000 0 13041661.607 9588942.590 19721434.542 10 0 60362 15300.00000 0 13975836.646 11711383.105 17842562.021 10 0 60362 16200.00000 0 14957505.309 13530617.591 15617278.714 10 0 60362 17100.00000 0 15929864.432 15016502.007 13088678.174 10 0 60362 18000.00000 0 16833109.423 16151581.130 10305778.214 10 0 60362 18900.00000 0 17607044.777 16931586.152 7322576.740 10 0 60362 19800.00000 0 18193732.324 17365387.666 4197007.081 10 0 60362 20700.00000 0 18540065.017 17474405.912 989812.780 10 0 60362 21600.00000 0 18600156.787 17291503.078 -2236636.230 10 0 60362 22500.00000 0 18337446.217 16859404.487 -5419562.603 10 0 60362 23400.00000 0 17726423.643 16228715.711 -8497011.182 10 0 60362 24300.00000 0 16753907.046 15455619.980 -11409064.291 10 0 60362 25200.00000 0 15419811.192 14599354.088 -14099017.962 10 0 60362 26100.00000 0 13737376.035 13719570.485 -16514495.082 10 0 60362 27000.00000 0 11732843.444 12873698.149 -18608472.846 10 0 60362 27900.00000 0 9444594.765 12114414.720 -20340203.821 10 0 60362 28800.00000 0 6921784.726 11487337.539 -21676012.210 10 0 60362 29700.00000 0 4222528.411 11029031.629 -22589949.730 10 0 60362 30600.00000 0 1411716.900 10765418.933 -23064298.466 10 0 60362 31500.00000 0 -1441447.352 10710655.873 -23089911.266 10 0 60362 32400.00000 0 -4266092.690 10866526.216 -22666383.578 10 0 60362 33300.00000 0 -6992388.140 11222374.297 -21802053.967 10 0 60362 34200.00000 0 -9554208.440 11755580.700 -20513833.905 10 0 60362 35100.00000 0 -11891643.878 12432559.612 -18826870.696 10 0 60362 36000.00000 0 -13953251.246 13210235.042 -16774050.549 10 0 60362 36900.00000 0 -15697953.229 14037932.997 -14395351.918 10 0 60362 37800.00000 0 -17096508.368 14859609.255 -11737061.976 10 0 60362 38700.00000 0 -18132491.830 15616318.319 -8850871.769 10 0 60362 39600.00000 0 -18802747.697 16248819.089 -5792867.907 10 0 60362 40500.00000 0 -19117295.642 16700207.122 -2622440.632 10 0 60362 41400.00000 0 -19098697.717 16918462.380 598870.318 10 0 60362 42300.00000 0 -18780913.467 16858804.998 3808569.412 10 0 60362 43200.00000 0 -18207692.951 16485759.826 6944415.342 10 0 60362 44100.00000 0 -17430576.388 15774842.840 9945623.905 10 0 60362 45000.00000 0 -16506585.379 14713798.465 12754040.545 10 0 60362 45900.00000 0 -15495703.227 13303335.682 15315260.248 10 0 60362 46800.00000 0 -14458250.404 11557331.763 17579673.615 10 0 60362 47700.00000 0 -13452265.164 9502494.539 19503419.605 10 0 60362 48600.00000 0 -12530998.826 7177496.565 21049227.331 10 0 60362 49500.00000 0 -11740630.138 4631616.185 22187131.553 10 0 60362 50400.00000 0 -11118293.904 1922940.794 22895048.780 10 0 60362 51300.00000 0 -10690505.831 -883794.543 23159203.561 10 0 60362 52200.00000 0 -10472049.191 -3719645.030 22974397.080 10 0 60362 53100.00000 0 -10465369.742 -6514071.185 22344112.945 10 0 60362 54000.00000 0 -10660504.425 -9197624.122 21280457.820 10 0 60362 54900.00000 0 -11035547.299 -11704591.189 19803937.393 10 0 60362 55800.00000 0 -11557633.868 -13975493.296 17943071.065 10 0 60362 56700.00000 0 -12184403.396 -15959331.044 15733851.632 10 0 60362 57600.00000 0 -12865878.644 -17615486.746 13219059.159 10 0 60362 58500.00000 0 -13546684.754 -18915203.210 10447441.136 10 0 60362 59400.00000 0 -14168514.333 -19842577.497 7472773.757 10 0 60362 60300.00000 0 -14672734.964 -20395027.802 4352821.796 10 0 60362 61200.00000 0 -15003028.776 -20583213.577 1148216.921 10 0 60362 62100.00000 0 -15107951.839 -20430412.015 -2078723.727 10 0 60362 63000.00000 0 -14943304.040 -19971377.018 -5265215.281 10 0 60362 63900.00000 0 -14474207.763 -19250728.897 -8349234.743 10 0 60362 64800.00000 0 -13676805.828 -18320943.102 -11270737.504 10 0 60362 65700.00000 0 -12539505.157 -17240023.530 -13972836.015 10 0 60362 66600.00000 0 -11063711.960 -16068959.478 -16402916.527 10 0 60362 67500.00000 0 -9264025.911 -14869074.549 -18513671.222 10 0 60362 68400.00000 0 -7167883.777 -13699380.293 -20264024.937 10 0 60362 69300.00000 0 -4814666.473 -12614047.043 -21619937.965 10 0 60362 70200.00000 0 -2254306.228 -11660099.112 -22555069.167 10 0 60362 71100.00000 0 454548.351 -10875431.713 -23051286.646 10 0 60362 72000.00000 0 3246732.921 -10287233.055 -23099016.362 10 0 60362 72900.00000 0 6053042.119 -9910877.571 -22697422.423 10 0 60362 73800.00000 0 8802875.418 -9749336.167 -21854416.110 10 0 60362 74700.00000 0 11426944.089 -9793127.354 -20586494.051 10 0 60362 75600.00000 0 13859926.980 -10020810.207 -18918409.237 10 0 60362 76500.00000 0 16042965.082 -10399997.300 -16882681.746 10 0 60362 77400.00000 0 17925891.726 -10888843.773 -14518959.118 10 0 60362 78300.00000 0 19469106.484 -11437948.802 -11873239.178 10 0 60362 79200.00000 0 20645015.817 -11992588.390 -8996970.670 10 0 60362 80100.00000 0 21438981.708 -12495184.594 -5946049.532 10 0 60362 81000.00000 0 21849740.162 -12887906.447 -2779730.531 10 0 60362 81900.00000 0 21889273.656 -13115292.452 440524.375 10 0 60362 82800.00000 0 21582144.444 -13126783.755 3652238.349 10 0 60362 83700.00000 0 20964318.127 -12879061.021 6793129.447 10 0 60362 84600.00000 0 20081528.099 -12338086.446 9802314.381 10 0 60362 85500.00000 0 18987250.443 -11480764.817 12621483.086 10 0 60363 0.00000 0 17740375.033 -10296153.765 15196021.465 10 0 60363 900.00000 0 16402670.089 -8786171.344 17476062.469 10 0 60363 1800.00000 0 15036148.132 -6965772.466 19417442.444 10 0 60363 2700.00000 0 13700441.070 -4862583.925 20982549.708 10 0 60363 3600.00000 0 12450295.335 -2516013.695 22141046.297 10 0 60363 4500.00000 0 11333290.481 24130.232 22870451.172 10 0 60363 5400.00000 0 10387875.951 2699455.462 23156574.031 10 0 60363 6300.00000 0 9641807.370 5445161.539 22993791.758 10 0 60363 7200.00000 0 9111047.217 8192488.388 22385162.240 10 0 60363 8100.00000 0 8799175.554 10871337.007 21342373.088 10 0 60363 9000.00000 0 8697335.471 13412955.241 19885525.602 10 0 60363 9900.00000 0 8784715.799 15752578.413 18042757.221 10 0 60363 10800.00000 0 9029551.326 17831916.082 15849708.618 10 0 60363 11700.00000 0 9390599.123 19601382.042 13348844.450 10 0 60363 12600.00000 0 9819029.450 21021974.845 10588639.753 10 0 60363 13500.00000 0 10260652.085 22066730.210 7622646.690 10 0 60363 14400.00000 0 10658384.324 22721684.213 4508458.973 10 0 60363 15300.00000 0 10954856.275 22986306.387 1306593.739 10 0 60363 16200.00000 0 11095042.732 22873384.051 -1920687.408 10 0 60363 17100.00000 0 11028809.309 22408362.357 -5110594.857 10 0 60363 18000.00000 0 10713263.781 21628167.624 -8201040.502 10 0 60363 18900.00000 0 10114811.513 20579563.660 -11131855.417 10 0 60363 19800.00000 0 9210826.315 19317110.700 -13845970.905 10 0 60363 20700.00000 0 7990864.334 17900813.625 -16290538.799 10 0 60363 21600.00000 0 6457368.056 16393559.389 -18417968.256 10 0 60363 22500.00000 0 4625829.248 14858452.454 -20186858.145 10 0 60363 23400.00000 0 2524402.712 13356161.240 -21562806.367 10 0 60363 24300.00000 0 192986.108 11942387.826 -22519080.221 10 0 60363 25200.00000 0 -2318196.340 10665567.651 -23037134.860 10 0 60363 26100.00000 0 -4950447.442 9564895.841 -23106970.093 10 0 60363 27000.00000 0 -7638810.830 8668762.678 -22727319.073 10 0 60363 27900.00000 0 -10314552.802 7993663.142 -21905665.770 10 0 60363 28800.00000 0 -12907808.907 7543625.239 -20658091.499 10 0 60363 29700.00000 0 -15350285.261 7310179.850 -19008954.007 10 0 60363 30600.00000 0 -17577902.419 7272871.860 -16990405.880 10 0 60363 31500.00000 0 -19533272.114 7400289.652 -14641762.029 10 0 60363 32400.00000 0 -21167904.317 7651568.134 -12008728.910 10 0 60363 33300.00000 0 -22444053.428 7978300.713 -9142510.762 10 0 60363 34200.00000 0 -23336127.544 8326778.474 -6098810.514 10 0 60363 35100.00000 0 -23831603.129 8640461.180 -2936745.048 10 0 60363 36000.00000 0 -23931408.137 8862575.125 282303.912 10 0 60363 36900.00000 0 -23649758.864 8938727.709 3495880.715 10 0 60363 37800.00000 0 -23013458.703 8819428.056 6641665.295 10 0 60363 38700.00000 0 -22060689.322 8462407.174 9658677.830 10 0 60363 39600.00000 0 -20839345.912 7834639.740 12488455.293 10 0 60363 40500.00000 0 -19404986.955 6913982.236 15076177.458 10 0 60363 41400.00000 0 -17818484.712 5690358.321 17371721.119 10 0 60363 42300.00000 0 -16143474.839 4166441.286 19330622.766 10 0 60363 43200.00000 0 -14443711.447 2357804.320 20914931.960 10 0 60363 44100.00000 0 -12780437.572 292531.372 22093939.783 10 0 60363 45000.00000 0 -11209880.071 -1989696.382 22844769.090 10 0 60363 45900.00000 0 -9780972.565 -4439001.896 23152815.824 10 0 60363 46800.00000 0 -8533400.546 -6997144.845 23012033.313 10 0 60363 47700.00000 0 -7496049.381 -9599711.061 22425054.123 10 0 60363 48600.00000 0 -6685919.383 -12178569.678 21403146.864 10 0 60363 49500.00000 0 -6107552.829 -14664497.634 19966008.167 10 0 60363 50400.00000 0 -5752996.807 -16989863.892 18141392.903 10 0 60363 51300.00000 0 -5602303.490 -19091262.890 15964588.683 10 0 60363 52200.00000 0 -5624547.170 -20911988.315 13477743.520 10 0 60363 53100.00000 0 -5779315.622 -22404244.307 10729058.475 10 0 60363 54000.00000 0 -6018613.366 -23531001.683 7771859.887 10 0 60363 54900.00000 0 -6289096.683 -24267421.080 4663568.389 10 0 60363 55800.00000 0 -6534545.927 -24601782.715 1464584.352 10 0 60363 56700.00000 0 -6698470.113 -24535883.016 -1762888.592 10 0 60363 57600.00000 0 -6726732.765 -24084880.734 -4956058.726 10 0 60363 58500.00000 0 -6570086.654 -23276598.494 -8052775.662 10 0 60363 59400.00000 0 -6186508.660 -22150308.896 -10992749.152 10 0 60363 60300.00000 0 -5543234.249 -20755056.326 -13718732.475 10 0 60363 61200.00000 0 -4618403.774 -19147585.446 -16177646.218 10 0 60363 62100.00000 0 -3402249.339 -17389964.149 -18321619.638 10 0 60363 63000.00000 0 -1897770.547 -15547001.649 -20108928.593 10 0 60363 63900.00000 0 -120869.297 -13683571.007 -21504811.280 10 0 60363 64800.00000 0 1900063.169 -11861949.154 -22482145.731 10 0 60363 65700.00000 0 4125090.518 -10139286.444 -23021976.004 10 0 60363 66600.00000 0 6504167.924 -8565311.938 -23113877.124 10 0 60363 67500.00000 0 8979011.315 -7180370.292 -22756152.156 10 0 60363 68400.00000 0 11485321.456 -6013871.824 -21955858.152 10 0 60363 69300.00000 0 13955270.171 -5083219.611 -20728661.032 10 0 60363 70200.00000 0 16320145.148 -4393257.243 -19098522.778 10 0 60363 71100.00000 0 18513043.226 -3936258.741 -17097227.499 10 0 60363 72000.00000 0 20471500.088 -3692459.354 -14763756.013 10 0 60363 72900.00000 0 22139947.060 -3631103.148 -12143521.474 10 0 60363 73800.00000 0 23471893.042 -3711961.647 -9287481.182 10 0 60363 74700.00000 0 24431741.127 -3887258.048 -6251142.184 10 0 60363 75600.00000 0 24996164.845 -4103914.594 -3093480.212 10 0 60363 76500.00000 0 25154987.481 -4306027.280 124206.785 10 0 60363 77400.00000 0 24911528.699 -4437462.656 3339488.033 10 0 60363 78300.00000 0 24282405.042 -4444466.598 6490009.060 10 0 60363 79200.00000 0 23296793.673 -4278174.625 9514697.095 10 0 60363 80100.00000 0 21995191.027 -3896917.698 12354939.502 10 0 60363 81000.00000 0 20427718.994 -3268226.216 14955712.759 10 0 60363 81900.00000 0 18652049.829 -2370447.691 17266640.640 10 0 60363 82800.00000 0 16731036.599 -1193909.877 19242961.820 10 0 60363 83700.00000 0 14730147.854 258419.976 20846388.989 10 0 60363 84600.00000 0 12714812.966 1970808.073 22045843.759 10 0 60363 85500.00000 0 10747788.034 3915165.616 22818053.959 10 0 60364 0.00000 0 8886651.272 6051982.886 23148002.453 10 0 60364 900.00000 0 7181530.162 8331749.762 23029219.341 10 0 60364 1800.00000 0 5673156.479 10696802.354 22463911.675 10 0 60364 2700.00000 0 4391326.028 13083524.595 21462928.513 10 0 60364 3600.00000 0 3353829.081 15424812.180 20045560.863 10 0 60364 4500.00000 0 2565894.731 17652698.994 18239179.709 10 0 60364 5400.00000 0 2020172.296 19701037.776 16078717.954 10 0 60364 6300.00000 0 1697250.535 21508124.195 13606005.014 10 0 60364 7200.00000 0 1566692.998 23019155.201 10868965.758 10 0 60364 8100.00000 0 1588546.117 24188418.901 7920698.259 10 0 60364 9000.00000 0 1715256.555 24981123.857 4818447.420 10 0 60364 9900.00000 0 1893916.806 25374790.354 1622494.035 10 0 60364 10800.00000 0 2068743.732 25360144.316 -1605019.172 10 0 60364 11700.00000 0 2183684.498 24941475.322 -4801301.341 10 0 60364 12600.00000 0 2185038.521 24136442.804 -7904142.746 10 0 60364 13500.00000 0 2023983.095 22975337.901 -10853134.651 10 0 60364 14400.00000 0 1658894.191 21499831.688 -13590854.970 10 0 60364 15300.00000 0 1057362.578 19761262.382 -16063995.483 10 0 60364 16200.00000 0 197818.332 17818533.802 -18224407.747 10 0 60364 17100.00000 0 -929306.456 15735713.854 -20030046.556 10 0 60364 18000.00000 0 -2320927.222 13579434.443 -21445792.082 10 0 60364 18900.00000 0 -3961197.272 11416202.448 -22444134.511 10 0 60364 19800.00000 0 -5821944.514 9309734.829 -23005707.928 10 0 60364 20700.00000 0 -7863636.889 7318429.629 -23119663.351 10 0 60364 21600.00000 0 -10036836.524 5493078.500 -22783874.154 10 0 60364 22500.00000 0 -12284082.039 3874915.829 -22004970.419 10 0 60364 23400.00000 0 -14542120.414 2494085.116 -20798202.146 10 0 60364 24300.00000 0 -16744395.275 1368585.404 -19187134.534 10 0 60364 25200.00000 0 -18823687.745 503740.209 -17203181.746 10 0 60364 26100.00000 0 -20714799.636 -107790.622 -14884988.645 10 0 60364 27000.00000 0 -22357167.103 -485458.592 -12277672.900 10 0 60364 27900.00000 0 -23697295.844 -659758.924 -9431942.475 10 0 60364 28800.00000 0 -24690916.432 -670694.317 -6403105.981 10 0 60364 29700.00000 0 -25304770.174 -565836.446 -3249995.363 10 0 60364 30600.00000 0 -25517951.442 -398068.259 -33822.110 10 0 60364 31500.00000 0 -25322751.008 -223103.386 3183010.605 10 0 60364 32400.00000 0 -24724965.882 -96888.128 6338116.629 10 0 60364 33300.00000 0 -23743663.457 -72996.171 9370332.972 10 0 60364 34200.00000 0 -22410410.494 -200126.203 12220900.077 10 0 60364 35100.00000 0 -20767999.765 -519808.101 14834593.705 10 0 60364 36000.00000 0 -18868727.829 -1064414.336 17160787.042 10 0 60364 36900.00000 0 -16772295.909 -1855560.388 19154423.135 10 0 60364 37800.00000 0 -14543421.166 -2902961.619 20776879.684 10 0 60364 38700.00000 0 -12249257.297 -4203795.017 21996710.351 10 0 60364 39600.00000 0 -9956731.065 -5742593.333 22790249.070 10 0 60364 40500.00000 0 -7729904.498 -7491677.122 23142066.370 10 0 60364 41400.00000 0 -5627471.307 -9412108.048 23045269.357 10 0 60364 42300.00000 0 -3700490.461 -11455125.315 22501639.664 10 0 60364 43200.00000 0 -1990450.113 -13564007.117 21521606.477 10 0 60364 44100.00000 0 -527741.494 -15676281.347 20124054.580 10 0 60364 45000.00000 0 669394.300 -17726195.043 18335970.210 10 0 60364 45900.00000 0 1595403.168 -19647341.027 16191930.441 10 0 60364 46800.00000 0 2257416.344 -21375333.147 13733444.737 10 0 60364 47700.00000 0 2674710.339 -22850418.872 11008160.193 10 0 60364 48600.00000 0 2877651.198 -24019920.064 8068944.811 10 0 60364 49500.00000 0 2906167.502 -24840399.280 4972865.780 10 0 60364 50400.00000 0 2807816.602 -25279459.949 1780082.162 10 0 60364 51300.00000 0 2635526.091 -25317103.781 -1447326.518 10 0 60364 52200.00000 0 2445106.593 -24946587.143 -4646572.690 10 0 60364 53100.00000 0 2292642.038 -24174739.192 -7755389.832 10 0 60364 54000.00000 0 2231869.089 -23021727.368 -10713253.376 10 0 60364 54900.00000 0 2311658.092 -21520279.299 -13462568.607 10 0 60364 55800.00000 0 2573703.716 -19714393.424 -15949801.271 10 0 60364 56700.00000 0 3050524.548 -17657592.377 -18126527.952 10 0 60364 57600.00000 0 3763857.709 -15410792.623 -19950384.974 10 0 60364 58500.00000 0 4723517.588 -13039880.056 -21385896.859 10 0 60364 59400.00000 0 5926767.981 -10613093.594 -22405168.011 10 0 60364 60300.00000 0 7358234.967 -8198326.593 -22988424.229 10 0 60364 61200.00000 0 8990364.842 -5860459.185 -23124393.813 10 0 60364 62100.00000 0 10784408.320 -3658832.877 -22810521.310 10 0 60364 63000.00000 0 12691889.990 -1644972.456 -22053010.285 10 0 60364 63900.00000 0 14656501.559 139350.484 -20866694.871 10 0 60364 64800.00000 0 16616339.615 1663632.715 -19274743.147 10 0 60364 65700.00000 0 18506394.250 2909671.497 -17308198.583 10 0 60364 66600.00000 0 20261184.339 3872072.261 -15005368.925 10 0 60364 67500.00000 0 21817429.233 4558212.620 -12411074.759 10 0 60364 68400.00000 0 23116645.119 4987666.280 -9575772.665 10 0 60364 69300.00000 0 24107557.503 5191113.063 -6554570.350 10 0 60364 70200.00000 0 24748229.081 5208782.787 -3406153.133 10 0 60364 71100.00000 0 25007814.241 5088500.160 -191642.897 10 0 60364 72000.00000 0 24867867.157 4883414.455 3026588.099 10 0 60364 72900.00000 0 24323149.194 4649510.751 6186125.414 10 0 60364 73800.00000 0 23381902.342 4443008.436 9225719.182 10 0 60364 74700.00000 0 22065577.688 4317757.130 12086466.127 10 0 60364 75600.00000 0 20408030.633 4322740.004 14712944.290 10 0 60364 76500.00000 0 18454216.647 4499789.695 17054279.001 10 0 60364 77400.00000 0 16258441.907 4881612.956 19065120.125 10 0 60364 78300.00000 0 13882241.439 5490207.082 20706512.508 10 0 60364 79200.00000 0 11391972.430 6335734.777 21946643.685 10 0 60364 80100.00000 0 8856222.007 7415905.103 22761455.163 10 0 60364 81000.00000 0 6343136.067 8715887.099 23135106.238 10 0 60364 81900.00000 0 3917778.882 10208760.825 23060281.781 10 0 60364 82800.00000 0 1639631.876 11856488.270 22538338.218 10 0 60364 83700.00000 0 -439665.798 13611365.160 21579284.671 10 0 60364 84600.00000 0 -2278242.075 15417894.785 20201599.041 10 0 60364 85500.00000 0 -3845502.967 17215007.177 18431881.701 99